KE8DAF-15 Weather Reports


Display with metric or nautical units.
time (UTC)temp
F
wind
direction
speed
MPH
gust
MPH
rain 1hr
in
rain 24hr
in
rain mn
in
humidity
%
barometer
mb
20260502221514 49 327 5.0 8.0 0.00 0.00 0.00 37 1001.3
20260502221014 49 336 5.0 11.0 0.00 0.00 0.00 36 1001.3
20260502220514 49 313 3.0 10.0 0.00 0.00 0.00 36 1001.3
20260502220014 49 322 4.0 4.0 0.00 0.00 0.00 35 1001.3
20260502215514 50 355 5.0 11.0 0.00 0.00 0.00 36 1001.4
20260502215014 50 355 5.0 9.0 0.00 0.00 0.00 38 1001.4
20260502214514 50 302 7.0 12.0 0.00 0.00 0.00 35 1001.3
20260502214016 50 312 8.0 14.0 0.00 0.00 0.00 37 1001.4
20260502213516 50 333 7.0 13.0 0.00 0.00 0.00 37 1001.4
20260502213016 50 306 5.0 13.0 0.00 0.00 0.00 36 1001.5
20260502212516 50 5 4.0 6.0 0.00 0.00 0.00 37 1001.5
20260502211515 50 0 3.0 4.0 0.00 0.00 0.00 37 1001.5
20260502211018 49 11 3.0 9.0 0.00 0.00 0.00 38 1001.6
20260502210515 50 29 5.0 4.0 0.00 0.00 0.00 36 1001.6
20260502210015 51 9 6.0 13.0 0.00 0.00 0.00 35 1001.7
20260502205515 51 300 3.0 9.0 0.00 0.00 0.00 36 1001.7
20260502205014 50 53 4.0 3.0 0.00 0.00 0.00 37 1001.6
20260502204515 50 355 6.0 12.0 0.00 0.00 0.00 35 1001.8
20260502204015 51 291 6.0 10.0 0.00 0.00 0.00 35 1001.8
20260502203515 51 328 6.0 12.0 0.00 0.00 0.00 33 1001.8
20260502203015 51 286 6.0 12.0 0.00 0.00 0.00 35 1001.8
20260502202515 51 315 5.0 14.0 0.00 0.00 0.00 34 1001.9
20260502202015 51 283 7.0 11.0 0.00 0.00 0.00 33 1001.9
20260502201515 50 298 9.0 12.0 0.00 0.00 0.00 34 1002.0
20260502201015 51 286 8.0 16.0 0.00 0.00 0.00 32 1002.0
20260502200515 51 296 7.0 13.0 0.00 0.00 0.00 34 1002.1
20260502200015 51 294 8.0 16.0 0.00 0.00 0.00 32 1002.1
20260502195517 51 294 6.0 13.0 0.00 0.00 0.00 33 1002.2
20260502195015 51 294 5.0 9.0 0.00 0.00 0.00 31 1002.2
20260502194515 50 261 6.0 13.0 0.00 0.00 0.00 34 1002.3
20260502193515 50 284 7.0 11.0 0.00 0.00 0.00 31 1002.5
20260502193016 50 321 8.0 13.0 0.00 0.00 0.00 32 1002.6
20260502192515 50 294 9.0 20.0 0.00 0.00 0.00 32 1002.6
20260502192015 50 313 7.0 14.0 0.00 0.00 0.00 32 1002.5
20260502191515 50 303 7.0 13.0 0.00 0.00 0.00 32 1002.6
20260502191015 49 284 8.0 17.0 0.00 0.00 0.00 34 1002.6
20260502190515 50 297 6.0 17.0 0.00 0.00 0.00 33 1002.7
20260502190015 50 345 6.0 11.0 0.00 0.00 0.00 37 1002.7
20260502185515 49 17 7.0 13.0 0.00 0.00 0.00 37 1002.8
20260502185015 49 279 6.0 13.0 0.00 0.00 0.00 33 1002.9
20260502184515 48 324 5.0 11.0 0.00 0.00 0.00 38 1002.9
20260502184015 48 333 6.0 8.0 0.00 0.00 0.00 38 1002.8
20260502183515 49 345 7.0 15.0 0.00 0.00 0.00 38 1002.8
20260502183015 48 331 6.0 12.0 0.00 0.00 0.00 36 1002.8
20260502182515 48 14 5.0 12.0 0.00 0.00 0.00 37 1002.9
20260502182015 47 9 4.0 8.0 0.00 0.00 0.00 39 1002.7
20260502181515 47 5 5.0 8.0 0.00 0.00 0.00 38 1002.8
20260502181015 47 355 6.0 13.0 0.00 0.00 0.00 36 1002.8
20260502180515 47 333 4.0 13.0 0.00 0.00 0.00 37 1002.8
20260502170515 43 334 3.0 8.0 0.00 0.00 0.00 54 1003.4
20260502164015 44 331 6.0 8.0 0.00 0.00 0.00 54 1003.6
20260502163515 44 20 5.0 12.0 0.00 0.00 0.00 52 1003.5
20260502163015 45 324 4.0 11.0 0.00 0.00 0.00 52 1003.6
20260502162515 45 347 4.0 9.0 0.00 0.00 0.00 52 1003.6
20260502162015 44 355 5.0 8.0 0.00 0.00 0.00 53 1003.7
20260502161515 45 350 7.0 11.0 0.00 0.00 0.00 52 1003.7
20260502161015 44 327 7.0 11.0 0.00 0.00 0.00 52 1003.7
20260502160515 44 309 6.0 10.0 0.00 0.00 0.00 50 1003.8
20260502152016 44 279 8.0 16.0 0.00 0.00 0.00 52 1003.8
20260502151516 44 292 7.0 13.0 0.00 0.00 0.00 51 1004.0
20260502151016 44 340 7.0 14.0 0.00 0.00 0.00 52 1004.0
20260502150516 44 308 7.0 15.0 0.00 0.00 0.00 51 1004.0
20260502130516 35 284 10.0 12.0 0.00 0.00 0.00 80 1004.8
20260502123516 34 294 9.0 11.0 0.00 0.00 0.00 83 1004.8
20260502123016 33 294 9.0 12.0 0.00 0.00 0.00 83 1004.9
20260502122516 33 297 9.0 12.0 0.00 0.00 0.00 84 1004.8
20260502122017 32 315 9.0 12.0 0.00 0.00 0.00 85 1004.8
20260502121516 32 302 9.0 13.0 0.00 0.00 0.00 85 1004.9
20260502121016 32 299 9.0 12.0 0.00 0.00 0.00 85 1004.8
20260502120516 31 298 9.0 12.0 0.00 0.00 0.00 86 1004.8
20260502115516 31 295 8.0 12.0 0.00 0.00 0.00 86 1004.8
20260502115016 30 294 8.0 10.0 0.00 0.01 0.00 87 1004.8
20260502114516 30 293 7.0 12.0 0.00 0.01 0.00 87 1004.8
20260502114017 29 297 7.0 10.0 0.00 0.01 0.00 87 1004.8
20260502113516 29 303 6.0 10.0 0.00 0.01 0.00 88 1004.7
20260502113017 28 290 5.0 9.0 0.00 0.01 0.00 88 1004.6
20260502112517 28 290 4.0 7.0 0.00 0.01 0.00 88 1004.5
20260502112017 28 286 4.0 7.0 0.00 0.01 0.00 88 1004.6
20260502111516 27 298 4.0 6.0 0.00 0.01 0.00 89 1004.5
20260502111017 27 283 4.0 6.0 0.00 0.01 0.00 89 1004.5
20260502110517 27 282 4.0 6.0 0.00 0.01 0.00 88 1004.5
20260502110017 27 288 3.0 4.0 0.00 0.01 0.00 88 1004.4
20260502105517 27 286 3.0 4.0 0.00 0.01 0.00 88 1004.5
20260502105017 27 286 3.0 4.0 0.00 0.01 0.00 88 1004.5
20260502104517 27 286 3.0 4.0 0.00 0.01 0.00 89 1004.6
20260502104017 27 286 3.0 4.0 0.00 0.01 0.00 88 1004.6
20260502103517 27 284 3.0 4.0 0.00 0.01 0.00 88 1004.6
20260502103017 27 285 4.0 4.0 0.00 0.01 0.00 88 1004.6
20260502102517 27 285 4.0 7.0 0.00 0.01 0.00 88 1004.6
20260502102017 27 281 4.0 6.0 0.00 0.01 0.00 88 1004.5
20260502101517 27 284 4.0 5.0 0.00 0.01 0.00 87 1004.6
20260502101017 27 284 4.0 5.0 0.00 0.01 0.00 87 1004.5
20260502100517 27 290 4.0 6.0 0.00 0.01 0.00 87 1004.6
20260502091517 28 290 3.0 4.0 0.00 0.01 0.00 87 1004.3
20260502091017 28 284 3.0 4.0 0.00 0.01 0.00 87 1004.3
20260502090517 28 286 4.0 6.0 0.00 0.01 0.00 87 1004.3
20260502071518 28 279 2.0 3.0 0.00 0.01 0.00 86 1004.2
20260502071017 29 289 3.0 3.0 0.00 0.01 0.00 86 1004.1
20260502070517 29 293 3.0 4.0 0.00 0.01 0.01 85 1004.1
20260502070017 29 298 3.0 5.0 0.00 0.01 0.01 85 1004.2
20260502065517 29 309 4.0 5.0 0.00 0.01 0.01 85 1004.3
20260502065017 29 298 4.0 7.0 0.00 0.01 0.01 84 1004.4
20260502064517 29 302 4.0 8.0 0.00 0.01 0.01 84 1004.3
20260502064018 30 293 4.0 5.0 0.00 0.01 0.01 85 1004.5
20260502063518 29 327 4.0 8.0 0.00 0.01 0.01 85 1004.4
20260502063017 29 319 4.0 7.0 0.00 0.01 0.01 86 1004.5
20260502062518 29 293 3.0 5.0 0.00 0.01 0.01 86 1004.5
20260502062018 29 300 3.0 4.0 0.00 0.01 0.01 85 1004.5
20260502061518 30 296 3.0 4.0 0.00 0.01 0.01 83 1004.5
20260502061018 31 300 3.0 5.0 0.00 0.01 0.01 82 1004.4
20260502060518 31 309 3.0 5.0 0.00 0.01 0.01 81 1004.4
20260502060018 32 327 3.0 5.0 0.00 0.01 0.01 81 1004.4
20260502055518 32 339 2.0 4.0 0.00 0.01 0.01 81 1004.4
20260502055018 32 329 2.0 3.0 0.00 0.01 0.01 81 1004.5
20260502054518 32 331 3.0 4.0 0.00 0.01 0.01 81 1004.5
20260502054018 32 330 2.0 4.0 0.00 0.01 0.01 81 1004.5
20260502053518 32 311 2.0 3.0 0.00 0.01 0.01 81 1004.5
20260502053019 32 300 3.0 4.0 0.00 0.01 0.01 81 1004.5
20260502052518 33 312 3.0 4.0 0.00 0.01 0.01 81 1004.5
20260502052018 33 300 2.0 4.0 0.00 0.01 0.01 80 1004.5
20260502051518 33 300 3.0 3.0 0.00 0.01 0.01 80 1004.5
20260502051018 33 325 3.0 5.0 0.00 0.01 0.01 80 1004.5
20260502050518 33 317 2.0 5.0 0.00 0.01 0.01 80 1004.5
20260502050018 33 313 2.0 3.0 0.00 0.01 0.01 80 1004.4
20260502045518 33 331 2.0 4.0 0.00 0.01 0.01 79 1004.4
20260502045018 33 311 2.0 5.0 0.00 0.01 0.01 79 1004.4
20260502044518 33 326 2.0 4.0 0.00 0.01 0.01 78 1004.3
20260502044018 33 340 2.0 4.0 0.00 0.01 0.01 78 1004.3
20260502043518 33 347 2.0 3.0 0.00 0.01 0.01 78 1004.4
20260502043018 33 321 2.0 3.0 0.00 0.01 0.01 78 1004.4
20260502042518 33 320 2.0 3.0 0.00 0.01 0.01 78 1004.4
20260502042018 33 333 2.0 4.0 0.00 0.01 0.01 78 1004.4
20260502041518 34 329 2.0 4.0 0.00 0.01 0.01 77 1004.4
20260502041018 34 331 2.0 3.0 0.00 0.01 0.01 78 1004.5
20260502040518 34 318 3.0 4.0 0.00 0.01 0.01 77 1004.4
20260502040018 34 331 3.0 4.0 0.00 0.01 0.01 77 1004.4
20260502035518 34 316 2.0 4.0 0.00 0.01 0.01 77 1004.5
20260502035018 34 332 2.0 5.0 0.00 0.01 0.01 76 1004.4
20260502034518 34 342 3.0 4.0 0.00 0.01 0.01 76 1004.5
20260502034018 34 355 3.0 6.0 0.00 0.01 0.01 76 1004.5
20260502033518 34 349 3.0 4.0 0.00 0.01 0.01 76 1004.5
20260502033019 34 0 2.0 5.0 0.00 0.01 0.01 77 1004.5
20260502032518 34 347 2.0 5.0 0.00 0.01 0.01 76 1004.5
20260502032018 34 338 3.0 5.0 0.00 0.01 0.01 76 1004.5
20260502031518 34 355 3.0 4.0 0.00 0.01 0.01 76 1004.4
20260502031018 34 342 3.0 4.0 0.00 0.01 0.01 76 1004.5
20260502030518 34 348 3.0 4.0 0.00 0.01 0.01 76 1004.5
20260502030018 34 348 2.0 7.0 0.00 0.01 0.01 76 1004.5
20260502025519 34 355 3.0 3.0 0.00 0.01 0.01 76 1004.5
20260502025018 34 348 3.0 4.0 0.00 0.01 0.01 75 1004.5
20260502024518 34 355 3.0 5.0 0.00 0.01 0.01 75 1004.5
20260502024018 34 350 3.0 5.0 0.00 0.01 0.01 75 1004.5
20260502023518 34 0 3.0 6.0 0.00 0.01 0.01 75 1004.6
20260502023019 34 350 2.0 4.0 0.00 0.01 0.01 76 1004.5
20260502022518 34 355 2.0 4.0 0.00 0.01 0.01 76 1004.6
20260502022018 35 5 3.0 4.0 0.00 0.01 0.01 75 1004.6
20260502021518 35 0 3.0 5.0 0.00 0.01 0.01 74 1004.5
20260502021018 35 0 3.0 5.0 0.00 0.01 0.01 74 1004.5
20260502020518 35 355 2.0 4.0 0.00 0.01 0.01 74 1004.5
20260502020018 35 344 2.0 4.0 0.00 0.01 0.01 73 1004.4
20260502015519 35 346 3.0 4.0 0.00 0.01 0.01 73 1004.5
20260502015019 35 337 3.0 5.0 0.00 0.01 0.01 73 1004.4
20260502014519 35 344 2.0 4.0 0.00 0.01 0.01 73 1004.4
20260502014019 35 340 2.0 4.0 0.00 0.01 0.01 72 1004.5
20260502013519 35 337 2.0 4.0 0.00 0.01 0.01 72 1004.4
20260502013019 35 338 2.0 3.0 0.00 0.01 0.01 72 1004.4
20260502012519 35 336 2.0 3.0 0.00 0.01 0.01 73 1004.3
20260502012019 35 328 2.0 5.0 0.00 0.01 0.01 72 1004.2
20260502011519 35 351 2.0 3.0 0.00 0.01 0.01 72 1004.2
20260502011019 35 344 2.0 5.0 0.00 0.01 0.01 72 1004.1
20260502010519 35 5 2.0 5.0 0.00 0.01 0.01 72 1004.1
20260502010020 35 348 2.0 4.0 0.00 0.01 0.01 72 1004.1
20260502005519 35 349 2.0 4.0 0.00 0.01 0.01 72 1004.0
20260502005019 35 355 2.0 3.0 0.00 0.01 0.01 71 1004.0
20260502004519 35 355 2.0 3.0 0.00 0.01 0.01 71 1003.9
20260502004019 35 5 2.0 4.0 0.00 0.01 0.01 70 1003.9
20260502003519 36 0 2.0 4.0 0.00 0.01 0.01 70 1003.8
20260502003019 36 355 2.0 3.0 0.00 0.01 0.01 70 1003.8
20260502002519 36 0 2.0 4.0 0.00 0.01 0.01 70 1003.9
20260502002019 36 345 2.0 3.0 0.00 0.01 0.01 68 1003.8
20260502001519 36 343 3.0 4.0 0.00 0.01 0.01 69 1003.8
20260502001019 36 345 3.0 5.0 0.00 0.01 0.01 67 1003.8
20260502000519 36 11 3.0 4.0 0.00 0.01 0.01 67 1003.7
20260502000019 37 350 3.0 6.0 0.00 0.01 0.01 66 1003.7
20260501235519 37 355 4.0 5.0 0.00 0.01 0.01 65 1003.6
20260501235019 37 341 4.0 9.0 0.00 0.01 0.01 64 1003.7
20260501234519 37 345 3.0 8.0 0.00 0.01 0.01 64 1003.6
20260501234019 37 318 3.0 6.0 0.00 0.01 0.01 64 1003.6
20260501233519 37 331 3.0 8.0 0.00 0.01 0.01 61 1003.6
20260501233019 37 10 3.0 8.0 0.00 0.01 0.01 61 1003.5
20260501232519 37 5 3.0 8.0 0.00 0.01 0.01 60 1003.5
20260501232019 37 350 3.0 4.0 0.00 0.01 0.01 61 1003.4
20260501231519 37 0 3.0 5.0 0.00 0.01 0.01 61 1003.4
20260501231019 37 347 3.0 6.0 0.00 0.01 0.01 62 1003.4
20260501230519 37 346 3.0 5.0 0.00 0.01 0.01 60 1003.4
20260501230019 38 355 3.0 5.0 0.00 0.01 0.01 60 1003.3
20260501225519 38 333 2.0 5.0 0.00 0.01 0.01 63 1003.3
20260501225019 38 355 2.0 3.0 0.00 0.01 0.01 62 1003.3
20260501224519 38 355 3.0 4.0 0.00 0.01 0.01 62 1003.3
20260501224019 38 348 3.0 5.0 0.00 0.01 0.01 61 1003.3
20260501223519 38 348 2.0 4.0 0.00 0.01 0.01 60 1003.3
20260501223019 38 5 2.0 5.0 0.00 0.01 0.01 61 1003.2
20260501222519 38 34 3.0 3.0 0.00 0.01 0.01 62 1003.3
20260501222019 38 0 3.0 6.0 0.00 0.01 0.01 63 1003.2